This demonstration page uses our WeatherBlox Daily Observations layout. Learn more.

Left ArrowRight Arrow

Hourly Observations for January 6, 2016

Temp ( °F °C ) Dew Point ( °F °C ) Humidity (%) Winds ( mph kmh ) Pressure ( in mb ) Visibility ( mi km ) Precip ( " mm )
12:53 am 00:53 Cloudy with Mist and Fog 33 0.6 31 -0.6 92 92 S 13 20 30.01 1016 5 8 0.00 0.03
1:53 am 01:53 Cloudy with Light Snow 33 0.6 31 -0.6 92 92 S 12 19 29.99 1016 4 6 0.00 0.03
2:45 am 02:45 Cloudy with Light Snow 33 0.6 31 -0.6 92 92 S 9 15 30.03 1017 3 4 0.00 0.03
2:53 am 02:53 Cloudy with Light Snow 33 0.6 31 -0.6 92 92 S 10 17 29.98 1015 4 6 0.00 0.03
3:53 am 03:53 Cloudy with Mist and Fog 33 0.6 31 -0.6 92 92 S 12 19 29.97 1015 5 8 0.00 0.03
4:48 am 04:48 Cloudy with Mist and Fog 34 1 30 -1 87 87 S 14 22 30.00 1016 5 8 0.00 0.00
4:53 am 04:53 Cloudy with Mist and Fog 33 0.6 31 -0.6 92 92 S 13 20 29.96 1015 5 8 0.00 0.00
5:28 am 05:28 Cloudy with Mist and Fog 34 1 30 -1 87 87 S 14 22 30.00 1016 4 6 0.00 0.00
5:53 am 05:53 Cloudy with Mist and Fog 33 0.6 30 -1.1 89 89 S 15 24 29.96 1015 4 6 0.00 0.00
6:53 am 06:53 Cloudy with Mist and Fog 32 0 30 -1.1 92 92 S 13 20 29.96 1015 3 5 0.00 0.00
7:15 am 07:15 Cloudy with Mist and Fog 32 0 30 -1.1 92 92 S 12 19 30.00 1016 3 4 0.00 0.00
7:53 am 07:53 Cloudy with Mist and Fog 32 0 30 -1.1 92 92 S 12 19 29.96 1015 3 4 0.00 0.00
8:12 am 08:12 Cloudy with Mist and Fog 32 0 30 -1 93 93 S 10 17 30.00 1016 3 5 0.00 0.00
8:24 am 08:24 Cloudy with Mist and Fog 32 0 30 -1 93 93 S 13 20 30.00 1016 2 3 0.00 0.00
8:53 am 08:53 Cloudy with Mist and Fog 32 0 30 -1.1 92 92 S 12 19 29.96 1015 2 3 0.00 0.00
9:53 am 09:53 Cloudy with Mist and Fog 32 0 30 -1.1 92 92 SSE 10 17 29.97 1015 3 4 0.00 0.00
10:10 am 10:10 Cloudy with Mist and Fog 32 0 30 -1 93 93 S 9 15 30.00 1016 3 5 0.00 0.00
10:53 am 10:53 Cloudy with Mist and Fog 33 0.6 31 -0.6 92 92 S 9 15 29.96 1015 3 5 0.00 0.00
11:53 am 11:53 Cloudy with Mist and Fog 33 0.6 31 -0.6 92 92 S 9 15 29.95 1014 3 5 0.00 0.00
12:53 pm 12:53 Cloudy with Mist and Fog 33 0.6 31 -0.6 92 92 S 8 13 29.91 1013 3 5 0.00 0.00
1:15 pm 13:15 Cloudy with Mist and Fog 33 0.6 31 -0.6 92 92 S 12 19 29.91 1013 3 4 0.00 0.00
1:38 pm 13:38 Cloudy with Mist and Fog 34 1 30 -1 87 87 S 9 15 29.91 1013 2 3 0.00 0.00
1:53 pm 13:53 Cloudy with Mist and Fog 33 0.6 31 -0.6 92 92 S 10 17 29.89 1012 1 2 0.00 0.00
2:07 pm 14:07 Cloudy with Fog 32 0 31 -0.6 96 96 S 9 15 29.91 1013 1 1 0.00 0.00
2:53 pm 14:53 Mostly Cloudy with Fog 33 0.6 32 0 96 96 S 8 13 29.88 1012 0 0 0.00 0.00
3:53 pm 15:53 Mostly Cloudy with Fog 33 0.6 32 0 96 96 SSE 7 11 29.88 1012 0 0 0.00 0.00
4:53 pm 16:53 Mostly Cloudy with Fog 32 0 32 0 100 100 SSE 6 9 29.89 1012 5 8 0.00 0.00
5:53 pm 17:53 Mostly Cloudy with Fog 32 0 31 -0.6 96 96 SSE 6 9 29.89 1012 0 0 0.00 0.00
6:53 pm 18:53 Mostly Cloudy with Fog 32 0 31 -0.6 96 96 SSE 6 9 29.91 1013 0 0 0.00 0.00
7:53 pm 19:53 Mostly Cloudy with Fog 33 0.6 32 0 96 96 SE 5 7 29.91 1013 0 0 0.00 0.00
8:53 pm 20:53 Mostly Cloudy with Fog 33 0.6 32 0 96 96 SE 6 9 29.91 1013 0 0 0.00 0.00
9:53 pm 21:53 Mostly Cloudy with Fog 33 0.6 32 0 96 96 SE 5 7 29.91 1013 0 0 0.00 0.00
10:53 pm 22:53 Mostly Cloudy with Fog 33 0.6 32 0 96 96 Calm 29.91 1013 0 0 0.00 0.00
11:53 pm 23:53 Mostly Cloudy with Fog 33 0.6 32 0 96 96 E 3 6 29.90 1013 0 0 0.00 0.00

Powered by AerisWeather